Location: ??
(31.9467°N, 34.8903°E)
Time: 17:32:16
(UTC+00:00)

In-Cosmos 22 Rocket - Pass Details

Date: 29 October 2020
Orbit: 790 x 888 km, 81.2° (Epoch: 29 November)

Event Time Altitude Azimuth Distance (km) Brightness Sun altitude
Rises 15:55:03 0° 352° (N) 3,319 7.3 -13.7°
Reaches altitude 10° 15:57:25 10° 353° (N) 2,395 6.6 -14.2°
Maximum altitude 16:02:50 87° 83° (E) 828 4.1 -15.3°
Drops below altitude 10° 16:08:23 10° 172° (S) 2,444 6.6 -16.5°
Sets 16:10:48 0° 173° (S) 3,390 7.3 -17.0°
